Time,TemperatureF,DewpointF,PressureIn,WindDirection,WindDirectionDegrees,WindSpeedMPH,WindSpeedGustMPH,Humidity,HourlyPrecipIn,Conditions,Clouds,dailyrainin,SoftwareType,DateUTC
2013-05-25 00:00:00,46.8,41.9,29.93,NNE,21,4.0,4.0,83,0.00,NA,NA,-99.99,VWS Version 10.38,2013-05-25 04:00:00,
2013-05-25 00:04:00,46.8,41.9,29.93,NE,42,5.4,5.4,83,0.00,NA,NA,-99.99,VWS Version 10.38,2013-05-25 04:04:00,
2013-05-25 00:09:00,46.6,41.7,29.93,ESE,116,5.8,5.8,83,0.00,NA,NA,-99.99,VWS Version 10.38,2013-05-25 04:09:00,
2013-05-25 00:14:00,46.6,42.0,29.93,WSW,256,4.0,4.0,84,0.00,NA,NA,-99.99,VWS Version 10.38,2013-05-25 04:14:00,
2013-05-25 00:19:00,46.6,42.0,29.93,NW,304,2.2,2.2,84,0.00,NA,NA,-99.99,VWS Version 10.38,2013-05-25 04:19:00,
2013-05-25 00:24:00,46.6,42.0,29.93,ESE,118,4.9,4.9,84,0.00,NA,NA,-99.99,VWS Version 10.38,2013-05-25 04:24:00,
2013-05-25 00:29:00,46.8,42.2,29.93,SE,134,2.2,2.2,84,0.00,NA,NA,-99.99,VWS Version 10.38,2013-05-25 04:29:00,
2013-05-25 00:34:00,46.8,42.2,29.93,SW,233,3.6,3.6,84,0.00,NA,NA,-99.99,VWS Version 10.38,2013-05-25 04:34:00,
2013-05-25 00:39:00,46.9,42.7,29.96,NNW,337,4.5,4.5,85,0.00,NA,NA,-99.99,VWS Version 10.38,2013-05-25 04:39:00,
2013-05-25 00:44:00,47.3,43.0,29.96,NE,54,3.1,3.1,85,0.00,NA,NA,-99.99,VWS Version 10.38,2013-05-25 04:44:00,
2013-05-25 00:49:00,46.9,42.4,29.96,NW,310,4.0,4.0,84,0.00,NA,NA,-99.99,VWS Version 10.38,2013-05-25 04:49:00,
2013-05-25 00:54:00,46.8,42.2,29.93,West,268,2.7,2.7,84,0.00,NA,NA,-99.99,VWS Version 10.38,2013-05-25 04:54:00,
2013-05-25 00:59:00,46.8,42.2,29.93,West,269,2.2,2.2,84,0.00,NA,NA,-99.99,VWS Version 10.38,2013-05-25 04:59:00,
2013-05-25 01:04:00,46.8,42.2,29.93,SW,229,3.1,3.1,84,0.00,NA,NA,-99.99,VWS Version 10.38,2013-05-25 05:04:00,
2013-05-25 01:09:00,46.9,42.7,29.96,WNW,299,2.7,2.7,85,0.00,NA,NA,-99.99,VWS Version 10.38,2013-05-25 05:09:00,
2013-05-25 01:14:00,47.1,42.8,29.96,WNW,287,3.6,3.6,85,0.00,NA,NA,-99.99,VWS Version 10.38,2013-05-25 05:14:00,
2013-05-25 01:19:00,47.3,43.0,29.96,WNW,289,3.6,3.6,85,0.00,NA,NA,-99.99,VWS Version 10.38,2013-05-25 05:19:00,
2013-05-25 01:24:00,47.3,43.0,29.96,SW,229,3.6,3.6,85,0.00,NA,NA,-99.99,VWS Version 10.38,2013-05-25 05:24:00,
2013-05-25 01:29:00,47.3,43.0,29.96,WNW,291,3.1,3.1,85,0.00,NA,NA,-99.99,VWS Version 10.38,2013-05-25 05:29:00,
2013-05-25 01:34:00,47.3,43.0,29.96,NW,315,0.0,0.0,85,0.00,NA,NA,-99.99,VWS Version 10.38,2013-05-25 05:34:00,
2013-05-25 01:39:00,47.3,43.0,29.96,West,261,3.6,3.6,85,0.00,NA,NA,-99.99,VWS Version 10.38,2013-05-25 05:39:00,
2013-05-25 01:45:00,47.5,43.2,29.96,West,273,3.1,3.1,85,0.00,NA,NA,-99.99,VWS Version 10.38,2013-05-25 05:45:00,
2013-05-25 01:50:00,47.5,43.2,29.96,East,82,4.0,4.0,85,0.00,NA,NA,-99.99,VWS Version 10.38,2013-05-25 05:50:00,
2013-05-25 02:00:00,47.1,42.8,29.96,NNW,334,2.2,2.2,85,0.00,NA,NA,-99.99,VWS Version 10.38,2013-05-25 06:00:00,
2013-05-25 02:05:00,47.1,42.8,29.96,NW,307,2.2,2.2,85,0.00,NA,NA,-99.99,VWS Version 10.38,2013-05-25 06:05:00,
2013-05-25 02:10:00,47.1,42.8,29.93,WNW,301,2.7,2.7,85,0.00,NA,NA,-99.99,VWS Version 10.38,2013-05-25 06:10:00,
2013-05-25 02:15:00,47.3,43.0,29.93,SW,224,5.4,5.4,85,0.00,NA,NA,-99.99,VWS Version 10.38,2013-05-25 06:15:00,
2013-05-25 02:20:00,47.1,42.8,29.93,WSW,256,5.4,5.4,85,0.00,NA,NA,-99.99,VWS Version 10.38,2013-05-25 06:20:00,
2013-05-25 02:25:00,46.9,42.7,29.93,West,262,2.7,2.7,85,0.00,NA,NA,-99.99,VWS Version 10.38,2013-05-25 06:25:00,
2013-05-25 02:30:00,47.1,42.8,29.93,West,267,4.9,4.9,85,0.00,NA,NA,-99.99,VWS Version 10.38,2013-05-25 06:30:00,
2013-05-25 02:35:00,47.1,42.8,29.93,West,262,3.1,3.1,85,0.00,NA,NA,-99.99,VWS Version 10.38,2013-05-25 06:35:00,
2013-05-25 02:40:00,47.3,43.0,29.93,West,259,2.7,2.7,85,0.00,NA,NA,-99.99,VWS Version 10.38,2013-05-25 06:40:00,
2013-05-25 02:45:00,47.1,42.8,29.93,West,279,6.3,6.3,85,0.00,NA,NA,-99.99,VWS Version 10.38,2013-05-25 06:45:00,
2013-05-25 02:50:00,47.1,42.8,29.93,SSW,203,0.0,0.0,85,0.00,NA,NA,-99.99,VWS Version 10.38,2013-05-25 06:50:00,
2013-05-25 02:55:00,47.1,42.8,29.93,SSW,213,2.7,2.7,85,0.00,NA,NA,-99.99,VWS Version 10.38,2013-05-25 06:55:00,
2013-05-25 03:00:00,47.1,42.8,29.93,SW,219,2.7,2.7,85,0.00,NA,NA,-99.99,VWS Version 10.38,2013-05-25 07:00:00,
2013-05-25 03:05:00,46.9,42.7,29.93,SW,234,3.1,3.1,85,0.00,NA,NA,-99.99,VWS Version 10.38,2013-05-25 07:05:00,
2013-05-25 03:10:00,46.9,42.7,29.93,West,263,3.1,3.1,85,0.00,NA,NA,-99.99,VWS Version 10.38,2013-05-25 07:10:00,
2013-05-25 03:15:00,46.8,42.5,29.93,NNW,330,2.2,2.2,85,0.00,NA,NA,-99.99,VWS Version 10.38,2013-05-25 07:15:00,
2013-05-25 03:20:00,46.8,42.5,29.93,WNW,294,2.7,2.7,85,0.04,NA,NA,-99.99,VWS Version 10.38,2013-05-25 07:20:00,
2013-05-25 03:25:00,46.6,42.3,29.93,SW,219,0.0,0.0,85,0.04,NA,NA,-99.99,VWS Version 10.38,2013-05-25 07:25:00,
2013-05-25 03:30:00,46.6,42.3,29.93,South,169,3.1,3.1,85,0.04,NA,NA,-99.99,VWS Version 10.38,2013-05-25 07:30:00,
2013-05-25 03:35:00,46.6,42.3,29.93,NW,315,0.0,0.0,85,0.04,NA,NA,-99.99,VWS Version 10.38,2013-05-25 07:35:00,
2013-05-25 03:40:00,46.6,42.3,29.93,WSW,251,3.1,3.1,85,0.04,NA,NA,-99.99,VWS Version 10.38,2013-05-25 07:40:00,
2013-05-25 03:45:00,46.8,42.8,29.93,West,278,3.1,3.1,86,0.04,NA,NA,-99.99,VWS Version 10.38,2013-05-25 07:45:00,
2013-05-25 03:50:00,46.8,42.5,29.93,West,269,0.0,0.0,85,0.04,NA,NA,-99.99,VWS Version 10.38,2013-05-25 07:50:00,
2013-05-25 03:55:00,46.8,42.8,29.93,WNW,302,4.9,4.9,86,0.04,NA,NA,-99.99,VWS Version 10.38,2013-05-25 07:55:00,
2013-05-25 04:00:00,46.6,42.3,29.93,WSW,256,0.0,0.0,85,0.04,NA,NA,-99.99,VWS Version 10.38,2013-05-25 08:00:00,
2013-05-25 04:05:00,46.6,42.6,29.93,SW,229,0.0,0.0,86,0.04,NA,NA,-99.99,VWS Version 10.38,2013-05-25 08:05:00,
2013-05-25 04:10:00,46.6,42.6,29.93,WSW,250,3.1,3.1,86,0.04,NA,NA,-99.99,VWS Version 10.38,2013-05-25 08:10:00,
2013-05-25 04:15:00,46.4,42.1,29.93,SE,138,4.0,4.0,85,0.04,NA,NA,-99.99,VWS Version 10.38,2013-05-25 08:15:00,
2013-05-25 04:20:00,46.4,42.1,29.93,SE,128,0.0,0.0,85,0.00,NA,NA,-99.99,VWS Version 10.38,2013-05-25 08:20:00,
2013-05-25 04:30:00,46.4,42.5,29.93,WSW,244,3.1,3.1,86,0.00,NA,NA,-99.99,VWS Version 10.38,2013-05-25 08:30:00,
2013-05-25 04:35:00,46.4,42.5,29.93,SW,218,0.0,0.0,86,0.00,NA,NA,-99.99,VWS Version 10.38,2013-05-25 08:35:00,
2013-05-25 04:40:00,46.4,42.5,29.93,WSW,253,4.9,4.9,86,0.00,NA,NA,-99.99,VWS Version 10.38,2013-05-25 08:40:00,
2013-05-25 04:45:00,46.4,42.5,29.93,South,176,0.0,0.0,86,0.00,NA,NA,-99.99,VWS Version 10.38,2013-05-25 08:45:00,
2013-05-25 04:50:00,46.4,42.5,29.93,WNW,289,3.1,3.1,86,0.00,NA,NA,-99.99,VWS Version 10.38,2013-05-25 08:50:00,
2013-05-25 04:55:00,46.6,42.6,29.93,WSW,253,4.9,4.9,86,0.00,NA,NA,-99.99,VWS Version 10.38,2013-05-25 08:55:00,
2013-05-25 05:00:00,46.8,42.8,29.93,WSW,237,2.7,2.7,86,0.00,NA,NA,-99.99,VWS Version 10.38,2013-05-25 09:00:00,
2013-05-25 05:05:00,46.8,42.8,29.93,ESE,102,6.3,6.3,86,0.00,NA,NA,-99.99,VWS Version 10.38,2013-05-25 09:05:00,
2013-05-25 05:10:00,46.8,42.8,29.93,SW,228,4.0,4.0,86,0.00,NA,NA,-99.99,VWS Version 10.38,2013-05-25 09:10:00,
2013-05-25 05:20:00,46.6,42.6,29.93,SW,231,2.2,2.2,86,0.00,NA,NA,-99.99,VWS Version 10.38,2013-05-25 09:20:00,
2013-05-25 05:25:00,46.6,42.6,29.93,WSW,248,0.0,0.0,86,0.00,NA,NA,-99.99,VWS Version 10.38,2013-05-25 09:25:00,
2013-05-25 05:30:00,46.6,42.6,29.93,West,261,4.0,4.0,86,0.00,NA,NA,-99.99,VWS Version 10.38,2013-05-25 09:30:00,
2013-05-25 05:35:00,46.8,42.8,29.93,West,277,3.1,3.1,86,0.00,NA,NA,-99.99,VWS Version 10.38,2013-05-25 09:35:00,
2013-05-25 05:40:00,46.8,42.8,29.93,NW,315,4.0,4.0,86,0.00,NA,NA,-99.99,VWS Version 10.38,2013-05-25 09:40:00,
2013-05-25 05:45:00,46.8,42.8,29.93,West,264,4.0,4.0,86,0.00,NA,NA,-99.99,VWS Version 10.38,2013-05-25 09:45:00,
2013-05-25 05:50:00,46.8,42.8,29.93,West,265,3.1,3.1,86,0.00,NA,NA,-99.99,VWS Version 10.38,2013-05-25 09:50:00,
2013-05-25 05:55:00,46.8,42.8,29.93,West,261,3.6,3.6,86,0.00,NA,NA,-99.99,VWS Version 10.38,2013-05-25 09:55:00,
2013-05-25 06:00:00,46.8,42.8,29.93,WSW,250,3.1,3.1,86,0.00,NA,NA,-99.99,VWS Version 10.38,2013-05-25 10:00:00,
2013-05-25 06:05:00,46.8,42.8,29.93,West,278,3.6,3.6,86,0.00,NA,NA,-99.99,VWS Version 10.38,2013-05-25 10:05:00,
2013-05-25 06:10:00,47.1,43.5,29.93,WSW,257,5.4,5.4,87,0.00,NA,NA,-99.99,VWS Version 10.38,2013-05-25 10:10:00,
2013-05-25 06:20:00,47.3,43.6,29.93,WNW,300,5.4,5.4,87,0.00,NA,NA,-99.99,VWS Version 10.38,2013-05-25 10:20:00,
2013-05-25 06:25:00,47.3,43.6,29.93,WSW,240,8.3,8.3,87,0.00,NA,NA,-99.99,VWS Version 10.38,2013-05-25 10:25:00,
2013-05-25 06:30:00,47.5,43.8,29.93,SW,234,3.6,3.6,87,0.00,NA,NA,-99.99,VWS Version 10.38,2013-05-25 10:30:00,
2013-05-25 06:35:00,47.3,43.6,29.93,NNW,341,2.7,2.7,87,0.00,NA,NA,-99.99,VWS Version 10.38,2013-05-25 10:35:00,
2013-05-25 06:40:00,47.3,43.3,29.93,West,279,2.2,2.2,86,0.04,NA,NA,-99.99,VWS Version 10.38,2013-05-25 10:40:00,
2013-05-25 06:45:00,47.3,43.6,29.93,SW,227,2.7,2.7,87,0.04,NA,NA,-99.99,VWS Version 10.38,2013-05-25 10:45:00,
2013-05-25 06:50:00,47.5,43.8,29.93,NW,305,5.8,5.8,87,0.04,NA,NA,-99.99,VWS Version 10.38,2013-05-25 10:50:00,
2013-05-25 06:55:00,47.5,43.8,29.93,WSW,258,5.4,5.4,87,0.04,NA,NA,-99.99,VWS Version 10.38,2013-05-25 10:55:00,
2013-05-25 07:00:00,47.7,44.0,29.93,WNW,283,0.0,0.0,87,0.04,NA,NA,-99.99,VWS Version 10.38,2013-05-25 11:00:00,
2013-05-25 07:05:00,47.8,44.2,29.93,NW,310,0.0,0.0,87,0.04,NA,NA,-99.99,VWS Version 10.38,2013-05-25 11:05:00,
2013-05-25 07:10:00,47.7,44.0,29.93,SSW,198,0.0,0.0,87,0.04,NA,NA,-99.99,VWS Version 10.38,2013-05-25 11:10:00,
2013-05-25 07:15:00,47.8,44.2,29.93,West,265,5.4,5.4,87,0.04,NA,NA,-99.99,VWS Version 10.38,2013-05-25 11:15:00,
2013-05-25 07:20:00,47.7,44.0,29.93,West,271,5.8,5.8,87,0.04,NA,NA,-99.99,VWS Version 10.38,2013-05-25 11:20:00,
2013-05-25 07:25:00,47.8,44.2,29.93,NE,36,0.0,0.0,87,0.04,NA,NA,-99.99,VWS Version 10.38,2013-05-25 11:25:00,
2013-05-25 07:30:00,47.7,44.0,29.93,SSE,163,3.6,3.6,87,0.04,NA,NA,-99.99,VWS Version 10.38,2013-05-25 11:30:00,
2013-05-25 07:35:00,47.7,43.7,29.93,SSW,204,0.0,0.0,86,0.04,NA,NA,-99.99,VWS Version 10.38,2013-05-25 11:35:00,
2013-05-25 07:40:00,47.8,44.2,29.93,South,182,4.9,4.9,87,0.00,NA,NA,-99.99,VWS Version 10.38,2013-05-25 11:40:00,
2013-05-25 07:45:00,47.7,43.7,29.93,WSW,251,3.1,3.1,86,0.00,NA,NA,-99.99,VWS Version 10.38,2013-05-25 11:45:00,
2013-05-25 07:55:00,47.5,43.5,29.93,WSW,253,10.5,10.5,86,0.00,NA,NA,-99.99,VWS Version 10.38,2013-05-25 11:55:00,
2013-05-25 08:00:00,47.5,43.5,29.93,West,276,4.9,4.9,86,0.00,NA,NA,-99.99,VWS Version 10.38,2013-05-25 12:00:00,
2013-05-25 08:05:00,47.7,43.7,29.93,West,272,2.7,2.7,86,0.00,NA,NA,-99.99,VWS Version 10.38,2013-05-25 12:05:00,
2013-05-25 08:10:00,47.7,43.4,29.93,WSW,258,2.2,2.2,85,0.00,NA,NA,-99.99,VWS Version 10.38,2013-05-25 12:10:00,
2013-05-25 08:20:00,48.2,43.9,29.93,WNW,297,5.4,5.4,85,0.00,NA,NA,-99.99,VWS Version 10.38,2013-05-25 12:20:00,
2013-05-25 08:25:00,47.8,43.6,29.93,West,271,2.7,2.7,85,0.00,NA,NA,-99.99,VWS Version 10.38,2013-05-25 12:25:00,
2013-05-25 08:30:00,47.8,43.6,29.93,West,269,3.6,3.6,85,0.00,NA,NA,-99.99,VWS Version 10.38,2013-05-25 12:30:00,
2013-05-25 08:35:00,48.2,43.6,29.93,West,272,4.9,4.9,84,0.00,NA,NA,-99.99,VWS Version 10.38,2013-05-25 12:35:00,
2013-05-25 08:40:00,48.6,44.0,29.93,West,279,6.3,6.3,84,0.00,NA,NA,-99.99,VWS Version 10.38,2013-05-25 12:40:00,
2013-05-25 08:45:00,49.3,45.0,29.93,ESE,105,3.1,3.1,85,0.00,NA,NA,-99.99,VWS Version 10.38,2013-05-25 12:45:00,
2013-05-25 08:50:00,50.0,45.7,29.93,SSE,156,0.0,0.0,85,0.00,NA,NA,-99.99,VWS Version 10.38,2013-05-25 12:50:00,
2013-05-25 08:55:00,50.5,46.2,29.93,WSW,252,5.4,5.4,85,0.00,NA,NA,-99.99,VWS Version 10.38,2013-05-25 12:55:00,
2013-05-25 09:00:00,50.4,45.7,29.93,WNW,285,3.1,3.1,84,0.00,NA,NA,-99.99,VWS Version 10.38,2013-05-25 13:00:00,
2013-05-25 09:05:00,50.4,45.4,29.93,WSW,254,5.4,5.4,83,0.00,NA,NA,-99.99,VWS Version 10.38,2013-05-25 13:05:00,
2013-05-25 09:10:00,50.4,45.4,29.93,West,259,3.6,3.6,83,0.00,NA,NA,-99.99,VWS Version 10.38,2013-05-25 13:10:00,
2013-05-25 09:15:00,50.7,45.4,29.93,NW,322,2.7,2.7,82,0.00,NA,NA,-99.99,VWS Version 10.38,2013-05-25 13:15:00,
2013-05-25 09:20:00,51.4,46.5,29.93,SE,127,3.6,3.6,83,0.00,NA,NA,-99.99,VWS Version 10.38,2013-05-25 13:20:00,
2013-05-25 09:25:00,50.9,45.0,29.93,East,79,2.7,2.7,80,0.00,NA,NA,-99.99,VWS Version 10.38,2013-05-25 13:25:00,
2013-05-25 09:30:00,50.4,43.8,29.93,WSW,242,6.3,6.3,78,0.00,NA,NA,-99.99,VWS Version 10.38,2013-05-25 13:30:00,
2013-05-25 09:35:00,50.0,43.1,29.93,SW,218,5.4,5.4,77,0.00,NA,NA,-99.99,VWS Version 10.38,2013-05-25 13:35:00,
2013-05-25 09:45:00,50.0,42.7,29.93,East,95,2.7,2.7,76,0.00,NA,NA,-99.99,VWS Version 10.38,2013-05-25 13:45:00,
2013-05-25 09:50:00,50.0,42.4,29.93,East,95,2.7,2.7,75,0.00,NA,NA,-99.99,VWS Version 10.38,2013-05-25 13:50:00,
2013-05-25 09:55:00,49.8,42.2,29.93,East,95,2.7,2.7,75,0.00,NA,NA,-99.99,VWS Version 10.38,2013-05-25 13:55:00,
2013-05-25 10:00:00,49.8,42.2,29.93,West,265,5.4,5.4,75,0.00,NA,NA,-99.99,VWS Version 10.38,2013-05-25 14:00:00,
2013-05-25 10:05:00,49.8,42.2,29.93,West,271,3.6,3.6,75,0.00,NA,NA,-99.99,VWS Version 10.38,2013-05-25 14:05:00,
2013-05-25 10:10:00,49.6,41.7,29.93,SSW,198,3.1,3.1,74,0.00,NA,NA,-99.99,VWS Version 10.38,2013-05-25 14:10:00,
2013-05-25 10:15:00,49.8,42.2,29.93,WNW,290,10.1,10.1,75,0.00,NA,NA,-99.99,VWS Version 10.38,2013-05-25 14:15:00,
2013-05-25 10:20:00,49.5,41.2,29.93,West,281,5.8,5.8,73,0.00,NA,NA,-99.99,VWS Version 10.38,2013-05-25 14:20:00,
2013-05-25 10:25:00,49.8,41.9,29.93,NNW,348,3.1,3.1,74,0.00,NA,NA,-99.99,VWS Version 10.38,2013-05-25 14:25:00,
2013-05-25 10:30:00,49.6,41.3,29.93,WSW,238,7.6,7.6,73,0.00,NA,NA,-99.99,VWS Version 10.38,2013-05-25 14:30:00,
2013-05-25 10:35:00,49.6,41.3,29.93,West,270,5.4,5.4,73,0.00,NA,NA,-99.99,VWS Version 10.38,2013-05-25 14:35:00,
2013-05-25 10:40:00,49.8,41.5,29.93,WNW,295,5.4,5.4,73,0.00,NA,NA,-99.99,VWS Version 10.38,2013-05-25 14:40:00,
2013-05-25 10:45:00,49.8,41.5,29.93,SW,235,3.6,3.6,73,0.00,NA,NA,-99.99,VWS Version 10.38,2013-05-25 14:45:00,
2013-05-25 10:50:00,49.6,40.6,29.93,NW,308,8.1,8.1,71,0.00,NA,NA,-99.99,VWS Version 10.38,2013-05-25 14:50:00,
2013-05-25 10:55:00,49.5,40.5,29.93,NW,320,3.6,3.6,71,0.00,NA,NA,-99.99,VWS Version 10.38,2013-05-25 14:55:00,
2013-05-25 11:00:00,49.1,39.4,29.93,NW,320,0.0,0.0,69,0.00,NA,NA,-99.99,VWS Version 10.38,2013-05-25 15:00:00,
2013-05-25 11:05:00,49.5,40.5,29.93,WNW,285,6.3,6.3,71,0.00,NA,NA,-99.99,VWS Version 10.38,2013-05-25 15:05:00,
2013-05-25 11:10:00,49.8,41.2,29.93,West,266,3.6,3.6,72,0.00,NA,NA,-99.99,VWS Version 10.38,2013-05-25 15:10:00,
2013-05-25 11:15:00,50.2,41.5,29.93,West,259,5.8,5.8,72,0.00,NA,NA,-99.99,VWS Version 10.38,2013-05-25 15:15:00,
2013-05-25 11:20:00,50.7,42.0,29.93,WNW,289,4.0,4.0,72,0.00,NA,NA,-99.99,VWS Version 10.38,2013-05-25 15:20:00,
2013-05-25 11:25:00,50.7,41.7,29.93,WNW,303,0.0,0.0,71,0.00,NA,NA,-99.99,VWS Version 10.38,2013-05-25 15:25:00,
2013-05-25 11:35:00,52.0,42.9,29.93,West,276,3.1,3.1,71,0.00,NA,NA,-99.99,VWS Version 10.38,2013-05-25 15:35:00,
2013-05-25 11:40:00,52.7,43.6,29.93,North,353,8.1,8.1,71,0.00,NA,NA,-99.99,VWS Version 10.38,2013-05-25 15:40:00,
2013-05-25 11:45:00,52.9,42.2,29.93,East,100,2.2,2.2,67,0.00,NA,NA,-99.99,VWS Version 10.38,2013-05-25 15:45:00,
2013-05-25 11:55:00,52.2,37.8,29.93,WNW,298,6.3,6.3,58,0.08,NA,NA,-99.99,VWS Version 10.38,2013-05-25 15:55:00,
2013-05-25 12:00:00,52.2,38.7,29.93,SW,229,3.6,3.6,60,0.08,NA,NA,-99.99,VWS Version 10.38,2013-05-25 16:00:00,
2013-05-25 12:05:00,52.3,39.3,29.93,WNW,293,2.7,2.7,61,0.08,NA,NA,-99.99,VWS Version 10.38,2013-05-25 16:05:00,
2013-05-25 12:10:00,52.9,39.8,29.93,NW,312,4.0,4.0,61,0.08,NA,NA,-99.99,VWS Version 10.38,2013-05-25 16:10:00,
2013-05-25 12:15:00,54.0,41.7,29.93,West,260,3.6,3.6,63,0.08,NA,NA,-99.99,VWS Version 10.38,2013-05-25 16:15:00,
2013-05-25 12:20:00,54.5,41.8,29.93,West,266,6.3,6.3,62,0.08,NA,NA,-99.99,VWS Version 10.38,2013-05-25 16:20:00,
2013-05-25 12:25:00,54.1,39.3,29.93,West,278,5.4,5.4,57,0.08,NA,NA,-99.99,VWS Version 10.38,2013-05-25 16:25:00,
2013-05-25 12:30:00,54.0,39.5,29.93,West,280,4.0,4.0,58,0.08,NA,NA,-99.99,VWS Version 10.38,2013-05-25 16:30:00,
2013-05-25 12:35:00,53.8,39.8,29.93,NW,312,5.4,5.4,59,0.08,NA,NA,-99.99,VWS Version 10.38,2013-05-25 16:35:00,
2013-05-25 12:40:00,53.2,39.3,29.93,WNW,284,5.8,5.8,59,0.08,NA,NA,-99.99,VWS Version 10.38,2013-05-25 16:40:00,
2013-05-25 12:45:00,52.7,38.3,29.93,West,281,6.3,6.3,58,0.08,NA,NA,-99.99,VWS Version 10.38,2013-05-25 16:45:00,
2013-05-25 12:50:00,52.2,38.7,29.93,SW,217,3.6,3.6,60,0.08,NA,NA,-99.99,VWS Version 10.38,2013-05-25 16:50:00,
2013-05-25 12:55:00,52.0,39.0,29.93,North,357,4.0,4.0,61,0.00,NA,NA,-99.99,VWS Version 10.38,2013-05-25 16:55:00,
2013-05-25 13:00:00,51.8,39.2,29.93,WSW,237,5.8,5.8,62,0.00,NA,NA,-99.99,VWS Version 10.38,2013-05-25 17:00:00,
2013-05-25 13:05:00,51.3,37.4,29.93,NW,325,7.6,7.6,59,0.00,NA,NA,-99.99,VWS Version 10.38,2013-05-25 17:05:00,
2013-05-25 13:10:00,50.7,36.9,29.93,West,281,7.6,7.6,59,0.00,NA,NA,-99.99,VWS Version 10.38,2013-05-25 17:10:00,
2013-05-25 13:15:00,50.4,36.6,29.93,SW,226,6.3,6.3,59,0.00,NA,NA,-99.99,VWS Version 10.38,2013-05-25 17:15:00,
2013-05-25 13:20:00,50.5,37.6,29.93,WNW,299,5.8,5.8,61,0.00,NA,NA,-99.99,VWS Version 10.38,2013-05-25 17:20:00,
2013-05-25 13:30:00,50.7,37.8,29.93,North,350,3.1,3.1,61,0.00,NA,NA,-99.99,VWS Version 10.38,2013-05-25 17:30:00,
2013-05-25 13:35:00,50.2,36.0,29.93,WSW,242,7.6,7.6,58,0.00,NA,NA,-99.99,VWS Version 10.38,2013-05-25 17:35:00,
2013-05-25 13:40:00,50.4,37.0,29.93,West,273,4.0,4.0,60,0.00,NA,NA,-99.99,VWS Version 10.38,2013-05-25 17:40:00,
2013-05-25 13:45:00,50.5,37.6,29.93,West,271,4.0,4.0,61,0.00,NA,NA,-99.99,VWS Version 10.38,2013-05-25 17:45:00,
2013-05-25 13:50:00,50.7,37.8,29.93,WNW,283,8.1,8.1,61,0.00,NA,NA,-99.99,VWS Version 10.38,2013-05-25 17:50:00,
2013-05-25 13:55:00,50.7,38.6,29.93,SSE,159,5.4,5.4,63,0.00,NA,NA,-99.99,VWS Version 10.38,2013-05-25 17:55:00,
2013-05-25 14:00:00,50.2,37.3,29.93,WNW,301,8.7,8.7,61,0.00,NA,NA,-99.99,VWS Version 10.38,2013-05-25 18:00:00,
2013-05-25 14:05:00,49.6,36.8,29.93,NW,321,12.3,12.3,61,0.00,NA,NA,-99.99,VWS Version 10.38,2013-05-25 18:05:00,
2013-05-25 14:10:00,49.3,36.8,29.93,WSW,253,2.7,2.7,62,0.00,NA,NA,-99.99,VWS Version 10.38,2013-05-25 18:10:00,
2013-05-25 14:15:00,49.1,37.1,29.93,WNW,286,4.0,4.0,63,0.00,NA,NA,-99.99,VWS Version 10.38,2013-05-25 18:15:00,
2013-05-25 14:20:00,49.5,37.8,29.93,WSW,257,3.1,3.1,64,0.00,NA,NA,-99.99,VWS Version 10.38,2013-05-25 18:20:00,
2013-05-25 14:25:00,49.6,38.0,29.93,NNW,336,3.1,3.1,64,0.00,NA,NA,-99.99,VWS Version 10.38,2013-05-25 18:25:00,
2013-05-25 14:30:00,49.6,38.0,29.93,North,353,6.3,6.3,64,0.00,NA,NA,-99.99,VWS Version 10.38,2013-05-25 18:30:00,
2013-05-25 14:35:00,49.3,37.2,29.93,SW,225,4.0,4.0,63,0.00,NA,NA,-99.99,VWS Version 10.38,2013-05-25 18:35:00,
2013-05-25 14:40:00,49.3,37.6,29.93,West,275,8.3,8.3,64,0.00,NA,NA,-99.99,VWS Version 10.38,2013-05-25 18:40:00,
2013-05-25 14:45:00,49.1,37.5,29.93,WNW,297,6.3,6.3,64,0.00,NA,NA,-99.99,VWS Version 10.38,2013-05-25 18:45:00,
2013-05-25 14:50:00,49.5,38.2,29.93,West,268,6.3,6.3,65,0.00,NA,NA,-99.99,VWS Version 10.38,2013-05-25 18:50:00,
2013-05-25 14:55:00,49.5,38.6,29.93,NW,317,6.3,6.3,66,0.00,NA,NA,-99.99,VWS Version 10.38,2013-05-25 18:55:00,
2013-05-25 15:00:00,49.1,37.9,29.93,WNW,287,5.8,5.8,65,0.00,NA,NA,-99.99,VWS Version 10.38,2013-05-25 19:00:00,
2013-05-25 15:05:00,49.1,37.5,29.93,WSW,253,4.9,4.9,64,0.00,NA,NA,-99.99,VWS Version 10.38,2013-05-25 19:05:00,
2013-05-25 15:10:00,48.9,37.3,29.93,NW,326,4.0,4.0,64,0.00,NA,NA,-99.99,VWS Version 10.38,2013-05-25 19:10:00,
2013-05-25 15:15:00,48.7,37.1,29.93,SW,231,4.0,4.0,64,0.00,NA,NA,-99.99,VWS Version 10.38,2013-05-25 19:15:00,
2013-05-25 15:25:00,48.7,37.5,29.93,SSW,207,5.4,5.4,65,0.00,NA,NA,-99.99,VWS Version 10.38,2013-05-25 19:25:00,
2013-05-25 15:30:00,48.9,38.1,29.93,WNW,286,4.0,4.0,66,0.00,NA,NA,-99.99,VWS Version 10.38,2013-05-25 19:30:00,
2013-05-25 15:35:00,48.7,37.9,29.93,WNW,302,8.7,8.7,66,0.00,NA,NA,-99.99,VWS Version 10.38,2013-05-25 19:35:00,
2013-05-25 15:40:00,48.2,37.0,29.93,WSW,254,4.9,4.9,65,0.00,NA,NA,-99.99,VWS Version 10.38,2013-05-25 19:40:00,
2013-05-25 15:45:00,47.7,36.9,29.93,SW,233,3.6,3.6,66,0.00,NA,NA,-99.99,VWS Version 10.38,2013-05-25 19:45:00,
2013-05-25 15:50:00,47.8,37.8,29.93,North,349,6.3,6.3,68,0.00,NA,NA,-99.99,VWS Version 10.38,2013-05-25 19:50:00,
2013-05-25 16:00:00,47.8,38.2,29.93,WNW,298,3.1,3.1,69,0.00,NA,NA,-99.99,VWS Version 10.38,2013-05-25 20:00:00,
2013-05-25 16:05:00,47.8,38.2,29.93,WNW,303,5.8,5.8,69,0.00,NA,NA,-99.99,VWS Version 10.38,2013-05-25 20:05:00,
2013-05-25 16:10:00,47.7,38.4,29.93,SSW,208,3.1,3.1,70,0.00,NA,NA,-99.99,VWS Version 10.38,2013-05-25 20:10:00,
2013-05-25 16:15:00,48.0,39.1,29.93,West,274,8.1,8.1,71,0.00,NA,NA,-99.99,VWS Version 10.38,2013-05-25 20:15:00,
2013-05-25 16:20:00,47.8,38.2,29.93,WSW,242,7.2,7.2,69,0.00,NA,NA,-99.99,VWS Version 10.38,2013-05-25 20:20:00,
2013-05-25 16:30:00,47.7,37.3,29.93,WNW,287,4.9,4.9,67,0.00,NA,NA,-99.99,VWS Version 10.38,2013-05-25 20:30:00,
2013-05-25 16:35:00,47.7,37.3,29.93,WSW,248,3.6,3.6,67,0.00,NA,NA,-99.99,VWS Version 10.38,2013-05-25 20:35:00,
2013-05-25 16:40:00,47.7,36.9,29.93,West,277,9.2,9.2,66,0.00,NA,NA,-99.99,VWS Version 10.38,2013-05-25 20:40:00,
2013-05-25 16:45:00,47.3,35.8,29.93,NW,312,8.1,8.1,64,0.00,NA,NA,-99.99,VWS Version 10.38,2013-05-25 20:45:00,
2013-05-25 16:50:00,47.3,36.2,29.93,West,266,5.4,5.4,65,0.00,NA,NA,-99.99,VWS Version 10.38,2013-05-25 20:50:00,
2013-05-25 16:55:00,47.3,36.5,29.93,West,280,5.8,5.8,66,0.00,NA,NA,-99.99,VWS Version 10.38,2013-05-25 20:55:00,
2013-05-25 17:00:00,47.3,36.2,29.93,SW,216,4.0,4.0,65,0.00,NA,NA,-99.99,VWS Version 10.38,2013-05-25 21:00:00,
2013-05-25 17:05:00,47.3,36.2,29.93,WSW,246,4.0,4.0,65,0.00,NA,NA,-99.99,VWS Version 10.38,2013-05-25 21:05:00,
2013-05-25 17:10:00,46.9,35.0,29.96,WSW,258,3.1,3.1,63,0.00,NA,NA,-99.99,VWS Version 10.38,2013-05-25 21:10:00,
2013-05-25 17:15:00,46.9,35.8,29.96,SW,221,3.1,3.1,65,0.00,NA,NA,-99.99,VWS Version 10.38,2013-05-25 21:15:00,
2013-05-25 17:20:00,47.3,36.5,29.96,NNW,342,3.1,3.1,66,0.00,NA,NA,-99.99,VWS Version 10.38,2013-05-25 21:20:00,
2013-05-25 17:25:00,47.3,36.5,29.96,SW,225,7.6,7.6,66,0.00,NA,NA,-99.99,VWS Version 10.38,2013-05-25 21:25:00,
2013-05-25 17:30:00,47.3,36.9,29.96,North,0,7.6,7.6,67,0.00,NA,NA,-99.99,VWS Version 10.38,2013-05-25 21:30:00,
2013-05-25 17:35:00,47.3,36.5,29.96,NW,319,8.3,8.3,66,0.00,NA,NA,-99.99,VWS Version 10.38,2013-05-25 21:35:00,
2013-05-25 17:40:00,47.1,35.6,29.96,WSW,248,8.7,8.7,64,0.00,NA,NA,-99.99,VWS Version 10.38,2013-05-25 21:40:00,
2013-05-25 17:45:00,47.1,35.2,29.96,WSW,255,5.4,5.4,63,0.00,NA,NA,-99.99,VWS Version 10.38,2013-05-25 21:45:00,
2013-05-25 17:50:00,47.3,35.8,29.96,WNW,283,6.3,6.3,64,0.00,NA,NA,-99.99,VWS Version 10.38,2013-05-25 21:50:00,
2013-05-25 17:55:00,47.3,35.8,29.96,WNW,294,6.3,6.3,64,0.00,NA,NA,-99.99,VWS Version 10.38,2013-05-25 21:55:00,
2013-05-25 18:00:00,46.9,35.0,29.96,West,276,5.4,5.4,63,0.00,NA,NA,-99.99,VWS Version 10.38,2013-05-25 22:00:00,
2013-05-25 18:05:00,46.8,35.2,29.96,North,353,6.7,6.7,64,0.00,NA,NA,-99.99,VWS Version 10.38,2013-05-25 22:05:00,
2013-05-25 18:10:00,46.6,35.1,29.96,West,263,5.4,5.4,64,0.00,NA,NA,-99.99,VWS Version 10.38,2013-05-25 22:10:00,
2013-05-25 18:15:00,46.2,34.7,29.96,West,268,6.3,6.3,64,0.00,NA,NA,-99.99,VWS Version 10.38,2013-05-25 22:15:00,
2013-05-25 18:20:00,46.2,35.5,29.96,WSW,249,4.9,4.9,66,0.00,NA,NA,-99.99,VWS Version 10.38,2013-05-25 22:20:00,
2013-05-25 18:25:00,46.2,35.9,29.96,NNW,327,3.1,3.1,67,0.00,NA,NA,-99.99,VWS Version 10.38,2013-05-25 22:25:00,
2013-05-25 18:30:00,46.2,35.9,29.96,WNW,297,10.5,10.5,67,0.00,NA,NA,-99.99,VWS Version 10.38,2013-05-25 22:30:00,
2013-05-25 18:35:00,45.9,35.2,29.96,NNW,329,4.5,4.5,66,0.00,NA,NA,-99.99,VWS Version 10.38,2013-05-25 22:35:00,
2013-05-25 18:40:00,45.9,35.2,29.96,NW,309,4.0,4.0,66,0.00,NA,NA,-99.99,VWS Version 10.38,2013-05-25 22:40:00,
2013-05-25 18:45:00,45.7,35.4,29.96,WSW,244,5.4,5.4,67,0.00,NA,NA,-99.99,VWS Version 10.38,2013-05-25 22:45:00,
2013-05-25 18:50:00,45.5,35.6,29.96,WNW,287,4.9,4.9,68,0.00,NA,NA,-99.99,VWS Version 10.38,2013-05-25 22:50:00,
2013-05-25 18:55:00,45.5,35.6,29.96,WNW,297,8.3,8.3,68,0.00,NA,NA,-99.99,VWS Version 10.38,2013-05-25 22:55:00,
2013-05-25 19:00:00,45.3,35.8,29.96,NW,316,4.9,4.9,69,0.00,NA,NA,-99.99,VWS Version 10.38,2013-05-25 23:00:00,
2013-05-25 19:05:00,45.3,36.1,29.96,NW,321,3.6,3.6,70,0.00,NA,NA,-99.99,VWS Version 10.38,2013-05-25 23:05:00,
2013-05-25 19:15:00,45.7,37.2,29.96,West,266,8.3,8.3,72,0.00,NA,NA,-99.99,VWS Version 10.38,2013-05-25 23:15:00,
2013-05-25 19:20:00,45.3,36.8,29.96,West,261,6.3,6.3,72,0.00,NA,NA,-99.99,VWS Version 10.38,2013-05-25 23:20:00,
2013-05-25 19:25:00,45.3,36.8,29.96,NW,305,7.6,7.6,72,0.00,NA,NA,-99.99,VWS Version 10.38,2013-05-25 23:25:00,
2013-05-25 19:30:00,45.1,37.0,29.96,WSW,239,5.8,5.8,73,0.00,NA,NA,-99.99,VWS Version 10.38,2013-05-25 23:30:00,
2013-05-25 19:35:00,45.3,37.2,29.96,SW,229,5.8,5.8,73,0.00,NA,NA,-99.99,VWS Version 10.38,2013-05-25 23:35:00,
2013-05-25 19:40:00,45.3,37.2,29.96,WSW,249,7.6,7.6,73,0.00,NA,NA,-99.99,VWS Version 10.38,2013-05-25 23:40:00,
2013-05-25 19:45:00,45.1,37.4,29.96,West,259,6.3,6.3,74,0.00,NA,NA,-99.99,VWS Version 10.38,2013-05-25 23:45:00,
2013-05-25 19:50:00,45.1,37.4,29.96,SW,224,7.2,7.2,74,0.00,NA,NA,-99.99,VWS Version 10.38,2013-05-25 23:50:00,
2013-05-25 19:55:00,45.1,37.4,29.99,West,280,8.1,8.1,74,0.00,NA,NA,-99.99,VWS Version 10.38,2013-05-25 23:55:00,
2013-05-25 20:00:00,45.0,37.2,29.99,NW,313,4.0,4.0,74,0.00,NA,NA,-99.99,VWS Version 10.38,2013-05-26 00:00:00,
2013-05-25 20:05:00,44.8,37.3,29.99,West,269,3.6,3.6,75,0.00,NA,NA,-99.99,VWS Version 10.38,2013-05-26 00:05:00,
2013-05-25 20:10:00,44.8,37.3,29.99,NW,305,2.7,2.7,75,0.00,NA,NA,-99.99,VWS Version 10.38,2013-05-26 00:10:00,
2013-05-25 20:15:00,44.6,37.2,29.99,North,353,6.3,6.3,75,0.00,NA,NA,-99.99,VWS Version 10.38,2013-05-26 00:15:00,
2013-05-25 20:20:00,44.6,37.2,29.99,West,263,4.0,4.0,75,0.00,NA,NA,-99.99,VWS Version 10.38,2013-05-26 00:20:00,
2013-05-25 20:25:00,44.8,37.7,29.99,West,279,3.1,3.1,76,0.00,NA,NA,-99.99,VWS Version 10.38,2013-05-26 00:25:00,
2013-05-25 20:30:00,44.8,37.7,29.99,West,272,7.2,7.2,76,0.00,NA,NA,-99.99,VWS Version 10.38,2013-05-26 00:30:00,
2013-05-25 20:35:00,44.6,37.5,29.99,SW,224,2.7,2.7,76,0.04,NA,NA,-99.99,VWS Version 10.38,2013-05-26 00:35:00,
2013-05-25 20:40:00,44.8,38.0,29.99,SSW,200,3.6,3.6,77,0.04,NA,NA,-99.99,VWS Version 10.38,2013-05-26 00:40:00,
2013-05-25 20:45:00,44.8,38.0,29.99,SW,233,8.7,8.7,77,0.04,NA,NA,-99.99,VWS Version 10.38,2013-05-26 00:45:00,
2013-05-25 20:50:00,44.4,37.7,29.99,West,271,6.3,6.3,77,0.04,NA,NA,-99.99,VWS Version 10.38,2013-05-26 00:50:00,
2013-05-25 20:55:00,44.4,37.7,29.99,NW,321,9.6,9.6,77,0.04,NA,NA,-99.99,VWS Version 10.38,2013-05-26 00:55:00,
2013-05-25 21:00:00,44.2,37.5,29.99,West,266,6.3,6.3,77,0.04,NA,NA,-99.99,VWS Version 10.38,2013-05-26 01:00:00,
2013-05-25 21:05:00,44.2,37.5,29.99,WNW,294,4.0,4.0,77,0.04,NA,NA,-99.99,VWS Version 10.38,2013-05-26 01:05:00,
2013-05-25 21:10:00,44.1,37.3,29.99,West,278,3.6,3.6,77,0.04,NA,NA,-99.99,VWS Version 10.38,2013-05-26 01:10:00,
2013-05-25 21:15:00,44.2,37.8,29.99,WSW,238,5.4,5.4,78,0.04,NA,NA,-99.99,VWS Version 10.38,2013-05-26 01:15:00,
2013-05-25 21:20:00,44.2,37.8,29.99,WSW,249,2.7,2.7,78,0.04,NA,NA,-99.99,VWS Version 10.38,2013-05-26 01:20:00,
2013-05-25 21:25:00,44.1,37.7,29.99,WSW,252,8.7,8.7,78,0.04,NA,NA,-99.99,VWS Version 10.38,2013-05-26 01:25:00,
2013-05-25 21:30:00,43.9,37.2,29.99,WNW,303,5.4,5.4,77,0.04,NA,NA,-99.99,VWS Version 10.38,2013-05-26 01:30:00,
2013-05-25 21:35:00,43.7,37.0,29.99,WSW,241,4.9,4.9,77,0.00,NA,NA,-99.99,VWS Version 10.38,2013-05-26 01:35:00,
2013-05-25 21:40:00,43.7,37.0,29.99,WSW,238,2.7,2.7,77,0.00,NA,NA,-99.99,VWS Version 10.38,2013-05-26 01:40:00,
2013-05-25 21:45:00,43.9,37.2,29.99,WSW,240,4.0,4.0,77,0.00,NA,NA,-99.99,VWS Version 10.38,2013-05-26 01:45:00,
2013-05-25 21:50:00,43.9,37.2,29.99,NW,315,5.4,5.4,77,0.00,NA,NA,-99.99,VWS Version 10.38,2013-05-26 01:50:00,
2013-05-25 21:55:00,43.9,37.5,29.99,West,267,5.4,5.4,78,0.00,NA,NA,-99.99,VWS Version 10.38,2013-05-26 01:55:00,
2013-05-25 22:00:00,44.1,37.7,29.99,WNW,294,4.0,4.0,78,0.00,NA,NA,-99.99,VWS Version 10.38,2013-05-26 02:00:00,
2013-05-25 22:05:00,44.1,37.7,29.99,WSW,253,5.4,5.4,78,0.00,NA,NA,-99.99,VWS Version 10.38,2013-05-26 02:05:00,
2013-05-25 22:10:00,43.9,37.5,29.99,NW,304,5.4,5.4,78,0.00,NA,NA,-99.99,VWS Version 10.38,2013-05-26 02:10:00,
2013-05-25 22:15:00,43.7,37.3,29.99,WNW,297,5.4,5.4,78,0.00,NA,NA,-99.99,VWS Version 10.38,2013-05-26 02:15:00,
2013-05-25 22:20:00,43.7,37.0,29.99,WSW,250,8.1,8.1,77,0.00,NA,NA,-99.99,VWS Version 10.38,2013-05-26 02:20:00,
2013-05-25 22:25:00,43.9,37.5,29.99,North,353,6.3,6.3,78,0.00,NA,NA,-99.99,VWS Version 10.38,2013-05-26 02:25:00,
2013-05-25 22:30:00,43.9,37.5,29.99,SW,225,2.7,2.7,78,0.00,NA,NA,-99.99,VWS Version 10.38,2013-05-26 02:30:00,
2013-05-25 22:35:00,43.9,37.5,29.99,WSW,258,6.3,6.3,78,0.00,NA,NA,-99.99,VWS Version 10.38,2013-05-26 02:35:00,
2013-05-25 22:40:00,43.7,37.3,29.99,West,266,3.6,3.6,78,0.00,NA,NA,-99.99,VWS Version 10.38,2013-05-26 02:40:00,
2013-05-25 22:45:00,43.5,36.8,29.99,WNW,293,5.4,5.4,77,0.00,NA,NA,-99.99,VWS Version 10.38,2013-05-26 02:45:00,
2013-05-25 22:50:00,43.5,36.8,29.99,WSW,246,2.7,2.7,77,0.00,NA,NA,-99.99,VWS Version 10.38,2013-05-26 02:50:00,
2013-05-25 22:55:00,43.7,37.0,29.99,SW,226,6.3,6.3,77,0.00,NA,NA,-99.99,VWS Version 10.38,2013-05-26 02:55:00,
2013-05-25 23:00:00,43.5,36.8,29.99,WSW,248,6.3,6.3,77,0.00,NA,NA,-99.99,VWS Version 10.38,2013-05-26 03:00:00,
2013-05-25 23:05:00,43.5,36.5,29.99,WNW,299,2.7,2.7,76,0.00,NA,NA,-99.99,VWS Version 10.38,2013-05-26 03:05:00,
2013-05-25 23:10:00,43.5,36.5,29.99,West,276,5.4,5.4,76,0.00,NA,NA,-99.99,VWS Version 10.38,2013-05-26 03:10:00,
2013-05-25 23:15:00,43.5,36.5,29.99,WNW,297,3.1,3.1,76,0.00,NA,NA,-99.99,VWS Version 10.38,2013-05-26 03:15:00,
2013-05-25 23:20:00,43.3,36.3,29.99,West,277,5.4,5.4,76,0.00,NA,NA,-99.99,VWS Version 10.38,2013-05-26 03:20:00,
2013-05-25 23:25:00,43.3,36.3,29.99,WNW,293,5.8,5.8,76,0.00,NA,NA,-99.99,VWS Version 10.38,2013-05-26 03:25:00,
2013-05-25 23:30:00,43.0,36.0,29.99,WNW,303,5.4,5.4,76,0.00,NA,NA,-99.99,VWS Version 10.38,2013-05-26 03:30:00,
2013-05-25 23:35:00,43.0,36.0,29.99,NW,308,5.4,5.4,76,0.00,NA,NA,-99.99,VWS Version 10.38,2013-05-26 03:35:00,
2013-05-25 23:40:00,43.0,36.3,29.99,West,277,6.3,6.3,77,0.00,NA,NA,-99.99,VWS Version 10.38,2013-05-26 03:40:00,
2013-05-25 23:45:00,43.0,36.3,29.99,WSW,239,4.9,4.9,77,0.00,NA,NA,-99.99,VWS Version 10.38,2013-05-26 03:45:00,
2013-05-25 23:50:00,43.0,36.0,29.99,NNW,338,6.3,6.3,76,0.00,NA,NA,-99.99,VWS Version 10.38,2013-05-26 03:50:00,
2013-05-25 23:55:00,43.0,36.3,29.96,WSW,256,3.6,3.6,77,0.00,NA,NA,-99.99,VWS Version 10.38,2013-05-26 03:55:00,